STARLINK-3043, 49179

Orbit data source: Space-Track

STARLINK-3043, 49179 is a payload satellite owned by SpaceX/Seattle (US) in LEO that was launched on Tue, 14 Sep 2021 UTC via an FALCON 9 launch vehicle from the Air Force Western Test Range (AFWTR). Payload-class satellites include a variety of spacecraft equipped with specific instruments for various scientific and technological missions. These include communications satellites like Starlink; space stations such as the ISS; scientific satellites like the Hubble; Earth observation satellites from companies like Planet Labs, Umbra, and HawkEye 360; GPS; miniature CubeSats for education and research; and military/defense satellites.

Loading next visibility...
Identifier
49179, 2021-082BB
Orbit
LEO
Country
Flag of USUS
Related business
Manufacturer
SpaceX/Seattle
Mission
Operational Commercial Communications
Bus & Motor
STARLINK, Unknown motor
Mass
297 kg wet, ~275 kg dry
Launch date (UTC)
2021-09-14 (5 years ago)
Launch vehicle
FALCON 9
Launch site
Air Force Western Test Range (AFWTR)
Object type
Payload
Rocket body
Debris
Shape & HBR
Box + 1 Pan, 10.1 m
Radar Cross Section
13.562 m², Large (>1 m²)

Expand to show TLE details & history
Last TLE update: 3 days ago

TLE from 3 days ago
0 STARLINK-3043
1 49179U 21082BB  26170.92300579  .00002603  00000-0  22583-3 0  9998
2 49179  70.0007 356.6798 0002366 270.6676  89.4212 14.98332833262270
Epoch: 2026-06-19T22:09Z
TLE epoch observation values (Epoch: 2026-06-19T22:09:07.700Z)
Latitude
-0.00001°
Longitude
116.25269°
Altitude
574.455 km
Speed
7.574 km/s
True Right ascension
23h 46m 43s
True Declination
0° 00' 00"
Sunlit
Object was in daylight at epoch
Visualization orbit readout
Latitude
Unknown
Longitude
Unknown
Altitude
Unknown
Speed
Unknown
Apparent Right ascension
Unknown
Apparent Declination
Unknown
Sunlit
N/A
Visualization observer readout
Local Sidereal Time
21:50:07
Azimuth
Unknown
Elevation
Unknown
Doppler factor
Unknown
Orbital elements
Apogee altitude
571.639 km
Perigee altitude
568.351 km
Semi-major axis
6,948.132 km
Eccentricity
0.00024
Inclination
70.0007°
RAAN
356.6798°
Arg. of periapsis
270.6676°
True anomaly
89.44831°
Mean anomaly
89.4212°
Eccentric anomaly
89.43476°
Mean motion
3.74749 °/min
Orbital period
96.06 mins
BSTAR
0.00022583
Loading maneuver chart data...
Computing Atmospheric mass density...

Documentation

Showing up to 5 results
|